Regional Weather Roundup
Issued by NWS

Home | Current Version | Previous Version | Graphics & Text | Print | Product List | Glossary On
Versions: 1 2 3 4 5 6 7 8 9 10 11 12 13 14 15 16 17 18 19 20 21 22 23 24 25 26 27 28 29 30 31 32 33 34 35 36 37 38 39 40 41 42 43 44 45 46 47 48 49 50
000
ASUS43 KDTX 022110
RWRMI
MICHIGAN HOURLY REGIONAL WEATHER ROUNDUP
NATIONAL WEATHER SERVICE DETROIT/PONTIAC MI
500 PM EDT THU JUL 02 2015

NOTE: "FAIR" INDICATES FEW OR NO CLOUDS BELOW 12,000 FEET WITH NO
SIGNIFICANT WEATHER AND/OR OBSTRUCTION TO VISIBILITY.

MIZ047>049-052>055-059>063-066>070-074>076-081>083-022200-
SOUTHEAST LOWER MICHIGAN

CITY           SKY/WX    TMP DP  RH WIND       PRES   REMARKS
ADRIAN         PTSUNNY   72  54  53 E8        29.98F
ALMA           SUNNY     71  48  44 E10       30.02F
ANN ARBOR      SUNNY     73  53  49 MISG      29.98F
BAD AXE        MOSUNNY   69  47  45 CALM      30.03S
CARO           MOSUNNY   72  54  53 N6        30.00F
DETROIT CITY   SUNNY     72  51  47 NE10      29.99F
DETROIT        MOSUNNY   75  52  44 N8        29.97F
FLINT          PTSUNNY   73  50  44 NE6       30.00F
GROSSE ILE     SUNNY     73  54  49 NE6       29.97S
HILLSDALE      MOSUNNY   71  53  53 E3        29.99S
HOWELL         MOSUNNY   71  50  46 N6        29.99F

CITY           SKY/WX    TMP DP  RH WIND       PRES   REMARKS
JACKSON        MOSUNNY   72  53  51 NE7       29.98F
LAMBERTVILLE   SUNNY     73  56  56 CALM      29.98S
LANSING        SUNNY     72  52  49 VRB7      30.00F
LAPEER         PTSUNNY   70  48  45 NE3       30.01S
MASON          MOSUNNY   70  52  53 N6        29.99F
MONROE         MOSUNNY   72  57  59 E7        29.96F
MT. CLEMENS    MOSUNNY   70  50  48 E12       29.98F
PONTIAC        PTSUNNY   71  51  49 N7        29.98F
PORT HOPE        N/A     61  52  72 NE6       30.03F
PORT HURON     SUNNY     68  48  49 N10       30.02S
TRI CITIES     SUNNY     72  48  42 NE7       30.03F
MIDLAND        FAIR      70  47  44 E9        30.02F
TROY           SUNNY     73  50  44 N7        30.01S
SAGINAW HB     SUNNY     72  43  35 NE7       30.01F
$$
MIZ043>046-050>051-056>058-064>065-071>073-077>080-022200-
SOUTHWEST LOWER MICHIGAN

CITY           SKY/WX    TMP DP  RH WIND       PRES   REMARKS
BATTLE CREEK   PTSUNNY   74  54  49 NE12      29.99S
BENTON HARBOR  MOSUNNY   69  58  67 VRB7      29.97S
BIG RAPIDS     SUNNY     72  40  30 E8        30.00F
COLDWATER      PTSUNNY   71  53  51 NE6       29.97F
FREMONT        FAIR      73  45  37 CALM      29.99F
HOLLAND        MOSUNNY   71  55  56 NW9       30.00S
GRAND RAPIDS   MOSUNNY   73  51  46 NE9       29.99F
IONIA          FAIR      70  53  53 E6        29.99F
KALAMAZOO      MOSUNNY   75  52  44 NE8       29.98F
LUDINGTON      SUNNY     71  52  50 N10       30.01S
MARSHALL       PTSUNNY   72  52  49 NE7       29.98S
MOUNT PLEASANT MOSUNNY   73  47  39 E6        30.00F
SOUTH HAVEN    MOSUNNY   67  57  71 N10       29.98S
$$
MIZ016>042-022200-
NORTHERN LOWER MICHIGAN

CITY           SKY/WX    TMP DP  RH WIND       PRES   REMARKS
BEAVER ISLAND  SUNNY     70  42  35 W9        30.03F
BELLAIRE       SUNNY     74  46  36 NE3       30.01F
CADILLAC       SUNNY     73  44  36 CALM      30.01F
CHARLEVOIX     SUNNY     67  45  44 NW8       30.06F
FRANKFORT      SUNNY     70  41  34 N13       30.02F
GAYLORD        MOSUNNY   71  44  37 NE7       30.02F
GRAYLING       SUNNY     72  44  36 NE8       30.02F
HARBOR SPRINGS SUNNY     67  54  62 W6        30.02F
HOUGHTON LAKE  SUNNY     73  43  33 NE10      30.02F
MANISTEE       SUNNY     66  48  52 NW13      30.01F
OSCODA         SUNNY     69  39  33 NE10      30.03F
PELLSTON       PTSUNNY   74  48  39 N5        30.02F
ROGERS CITY    SUNNY     70  43  37 CALM      30.03F
TRAVERSE CITY  MOSUNNY   72  52  49 NE8       30.00F
$$
MIZ007>008-015-022200-
EASTERN UPPER MICHIGAN

CITY           SKY/WX    TMP DP  RH WIND       PRES   REMARKS
KINROSS        SUNNY     72  45  37 W9        30.01F
MACKINAC ISLAN SUNNY     69  48  46 W7        30.02F
NEWBERRY       CLOUDY    71  53  52 W5        30.01F
S. S. MARIE    SUNNY     71  47  42 W8        30.01F
MUNISING         N/A     64  52  64 CALM      29.99F
$$
MIZ004>006-011>014-085-022200-
CENTRAL UPPER MICHIGAN

CITY           SKY/WX    TMP DP  RH WIND       PRES   REMARKS
MANISTIQUE     SUNNY     64  48  56 SW13      30.03S
ESCANABA       SUNNY     70  43  37 S12       30.02F
MENOMINEE      SUNNY     70  45  40 S9        30.03F
SAWYER-GWINN   CLOUDY    75  48  38 SW7       30.01F
$$
MIZ001>003-009>011-084-022200-
WESTERN UPPER MICHIGAN

CITY           SKY/WX    TMP DP  RH WIND       PRES   REMARKS
IRON MOUNTAIN  SUNNY     74  49  41 S8        30.00F
HOUGHTON       PTSUNNY   74  54  49 W12       29.98F
COPPER HARBOR    N/A     62  53  72 CALM      29.97F
IRONWOOD       SUNNY     75  57  53 W5        29.96F
$$

ABBREVIATIONS USED IN REMARKS
   TC - TEMPERATURE IN CELSIUS
  WCI - WIND CHILL INDEX
   HX - HEAT INDEX
  VSB - VISIBILITY




USA.gov is the U.S. government's official web portal to all federal, state and local government web resources and services.